IRNSS-1E

Last updated on Tue Sep 22 2026 00:03:13 GMT+0000 (Coordinated Universal Time)

1 41241U 16003A 26264.36834347 -.00000281 00000+0 00000+0 0 9990 2 41241 33.4441 58.3606 0021652 180.8564 5.4834 1.00272673 39047
UTC large
Height (km)
Speed (km/s)
/
Latitude / Longitude
Inclination (degrees)
Orbital Period (minutes)
Azimuth
Elevation
Range (km)
Doppler Factor

Next 0 passes for location: London (51.5072 / 0.1276)

No passes found over London.
IRNSS-1E